Location: *
(34.6903°N, 135.5184°E)
Time: 19:52:45
(UTC+00:00)

SL-4 R/B - Pass Details

Date: 22 September 2019
Orbit: 428 x 667 km, 51.6° (Epoch: 21 October)

Event Time Altitude Azimuth Distance (km) Brightness Sun altitude
Exits shadow 18:28:23 19° 103° (ESE) 1,135 4.1 -28.4°
Drops below altitude 10° 18:29:39 10° 112° (ESE) 1,610 4.9 -28.2°
Sets 18:31:56 0° 119° (ESE) 2,521 5.9 -27.8°
